Total_Precipitation_Accumulation
0.55 0.14 0.17 0.28 0.15 0.14 0.08 0.04 0.03 0.06 0.09 0.05 0.04 0.04 0.01 0.01 0.03 0.03 0.02 0.03 0.03 0.07 0.05 0.02 0.03 0.08 0.14 0.11 0.18 0.14 0.15 0.14 0.20 0.52 0.63 0.50 0.40 0.22 0.30 0.53 0.36 0.44 0.60
0.72 0.40 0.56 0.31 0.12 0.15 0.16 0.08 0.04 0.06 0.07 0.04 0.03 0.02 0.01 0.00 0.02 0.02 0.01 0.02 0.03 0.15 0.06 0.02 0.04 0.07 0.10 0.08 0.08 0.05 0.03 0.08 0.13 0.35 0.45 0.54 0.51 0.29 0.30 0.43 0.28 0.47 0.59
1.63 0.97 0.87 0.94 0.30 0.22 0.19 0.12 0.06 0.02 0.01 0.02 0.01 0.00 0.01 0.01 0.01 0.02 0.01 0.03 0.06 0.26 0.23 0.04 0.05 0.12 0.07 0.05 0.06 0.05 0.03 0.03 0.10 0.26 0.51 0.31 0.27 0.51 0.38 0.29 0.25 0.35 0.39
0.41 0.57 0.75 1.19 0.97 0.80 0.62 0.22 0.12 0.08 0.05 0.01 0.02 0.02 0.02 0.01 0.03 0.07 0.02 0.01 0.15 0.30 0.30 0.29 0.26 0.17 0.07 0.03 0.03 0.05 0.03 0.04 0.10 0.19 0.52 0.87 0.36 0.64 0.44 0.24 0.25 0.29 0.41
0.35 0.31 0.76 1.18 1.33 0.83 0.99 0.67 0.43 0.38 0.16 0.07 0.12 0.05 0.03 0.05 0.19 0.27 0.22 0.21 0.38 0.44 0.42 0.44 0.41 0.29 0.08 0.00 0.00 0.01 0.03 0.08 0.07 0.13 0.45 0.97 0.73 0.97 0.49 0.33 0.26 0.21 0.30
1.14 0.91 1.64 2.05 1.48 1.03 0.94 1.15 2.03 1.84 1.26 0.97 0.62 0.39 0.21 0.37 0.50 0.49 0.46 0.43 0.48 0.55 0.40 0.38 0.43 0.23 0.02 0.00 0.00 0.00 0.03 0.06 0.22 0.16 0.31 1.20 1.11 1.31 1.30 0.41 0.28 0.31 0.28
2.76 2.23 2.19 3.00 2.30 1.62 1.11 1.36 2.02 3.37 3.89 3.34 2.31 1.32 1.53 1.73 1.40 1.11 0.70 0.56 0.51 0.53 0.54 0.45 0.32 0.20 0.07 0.03 0.11 0.09 0.04 0.18 0.35 0.61 0.54 1.21 2.33 1.42 1.40 1.00 0.33 0.27 0.26
5.81 6.52 4.51 4.60 5.14 3.94 2.54 1.24 1.45 2.05 3.30 3.37 3.48 3.31 3.14 2.51 1.60 1.23 0.75 0.58 0.54 0.52 0.45 0.48 0.32 0.29 0.17 0.27 0.25 0.24 0.22 0.21 0.27 0.51 0.75 0.69 1.94 2.13 1.02 0.58 0.29 0.18 0.14
6.86 10.03 10.33 6.89 6.24 5.55 6.20 3.91 1.58 1.50 1.65 2.05 2.18 2.17 2.52 2.89 1.96 1.43 0.90 0.66 0.69 0.71 0.38 0.34 0.29 0.39 0.57 0.53 0.23 0.26 0.29 0.31 0.25 0.71 1.13 0.55 0.62 1.56 1.71 0.68 0.35 0.20 0.15
7.50 6.57 6.82 5.47 4.75 4.34 4.46 5.06 3.46 2.30 1.97 1.75 1.69 1.58 1.51 2.07 1.98 1.37 0.86 0.64 0.74 0.67 0.48 0.39 0.48 0.62 0.57 0.53 0.54 0.46 0.35 0.26 0.08 0.12 0.45 0.36 0.57 0.32 0.57 0.61 0.42 0.27 0.22
3.50 3.96 3.54 2.44 1.70 1.94 2.04 2.50 3.09 3.09 2.51 2.53 2.74 1.90 1.43 1.38 1.81 1.37 0.94 0.61 0.69 0.69 0.59 0.49 0.60 0.63 0.53 0.45 0.31 0.24 0.22 0.23 0.13 0.06 0.04 0.16 0.52 0.50 0.30 0.31 0.29 0.19 0.22
2.08 1.80 1.28 0.80 0.43 0.47 0.60 0.76 1.27 2.04 2.40 2.14 3.45 2.34 1.94 1.11 1.21 1.08 1.16 0.78 0.69 0.89 0.65 0.74 0.60 0.46 0.36 0.25 0.17 0.13 0.09 0.19 0.09 0.08 0.06 0.22 0.39 0.45 0.31 0.18 0.11 0.16 0.25
0.85 0.81 0.74 0.52 0.30 0.33 0.26 0.31 0.49 1.13 1.96 2.22 2.39 2.24 2.24 1.28 1.40 1.13 1.29 1.01 0.81 1.23 0.84 0.79 0.59 0.42 0.26 0.24 0.22 0.14 0.21 0.15 0.12 0.09 0.15 0.18 0.36 0.39 0.09 0.03 0.03 0.04 0.12
0.45 0.47 0.32 0.35 0.36 0.51 0.36 0.25 0.30 0.73 1.52 1.73 1.38 1.17 1.56 1.07 1.05 1.08 0.85 0.87 0.68 1.15 0.80 0.55 0.38 0.31 0.32 0.34 0.28 0.23 0.17 0.15 0.13 0.07 0.10 0.26 0.35 0.37 0.16 0.04 0.04 0.04 0.06
0.30 0.41 0.39 0.18 0.25 0.23 0.23 0.24 0.23 0.58 0.82 1.10 0.99 0.40 1.02 0.83 0.60 0.96 0.77 0.75 0.55 1.10 0.66 0.37 0.41 0.32 0.34 0.35 0.35 0.30 0.13 0.20 0.11 0.12 0.23 0.43 0.48 0.38 0.36 0.13 0.06 0.04 0.04
0.26 0.39 0.47 0.41 0.35 0.30 0.23 0.31 0.30 0.46 0.82 0.74 0.89 0.38 0.26 0.41 0.57 0.96 0.88 0.75 0.51 0.76 0.64 0.52 0.33 0.39 0.37 0.48 0.32 0.25 0.20 0.23 0.08 0.08 0.17 0.31 0.42 0.45 0.42 0.30 0.14 0.05 0.04
0.07 0.22 0.62 1.02 0.50 0.34 0.28 0.31 0.34 0.25 0.45 0.67 0.78 0.54 0.23 0.13 0.30 0.52 0.72 0.56 0.54 0.62 0.54 0.69 0.62 0.46 0.47 0.73 0.43 0.29 0.18 0.24 0.12 0.04 0.08 0.15 0.22 0.33 0.42 0.40 0.26 0.08 0.04
0.04 0.12 0.66 1.27 0.93 0.48 0.27 0.33 0.37 0.47 0.44 0.54 0.60 0.56 0.30 0.22 0.21 0.26 0.44 0.68 0.54 0.61 0.43 0.46 0.69 0.50 0.45 0.65 0.64 0.36 0.28 0.23 0.28 0.07 0.04 0.09 0.13 0.15 0.25 0.33 0.29 0.13 0.05
0.04 0.17 0.50 0.80 1.08 0.97 0.76 0.72 0.56 0.47 0.53 0.50 0.41 0.45 0.31 0.26 0.29 0.22 0.30 0.41 0.71 0.47 0.37 0.48 0.57 0.60 0.41 0.51 0.67 0.52 0.37 0.28 0.32 0.27 0.06 0.06 0.10 0.15 0.12 0.17 0.16 0.07 0.04
0.08 0.32 0.58 0.72 1.21 1.58 0.87 0.35 0.41 0.64 0.54 0.48 0.32 0.37 0.45 0.33 0.43 0.39 0.36 0.28 0.36 0.52 0.44 0.59 0.70 0.65 0.54 0.44 0.60 0.68 0.38 0.38 0.31 0.37 0.22 0.15 0.15 0.16 0.21 0.16 0.11 0.05 0.03
0.18 0.42 0.64 1.00 0.97 0.47 0.24 0.15 0.27 0.47 0.60 0.53 0.39 0.30 0.52 0.57 0.55 0.69 0.63 0.60 0.39 0.19 0.39 0.49 0.85 0.89 0.77 0.55 0.84 0.94 0.72 0.37 0.36 0.31 0.27 0.26 0.33 0.30 0.35 0.26 0.09 0.03 0.02
0.44 0.44 0.33 0.15 0.13 0.04 0.06 0.10 0.16 0.24 0.44 0.47 0.38 0.18 0.34 0.59 0.83 0.69 0.61 0.74 0.69 0.36 0.18 0.32 0.65 1.09 0.98 0.66 0.72 0.79 0.66 0.43 0.30 0.37 0.24 0.16 0.21 0.31 0.37 0.34 0.07 0.02 0.01
0.05 0.02 0.06 0.08 0.14 0.05 0.04 0.12 0.19 0.38 0.57 0.49 0.45 0.25 0.22 0.30 0.63 0.85 0.75 0.65 0.71 0.46 0.19 0.12 0.25 0.69 0.71 0.70 0.44 0.53 0.35 0.34 0.21 0.27 0.28 0.16 0.14 0.16 0.18 0.19 0.09 0.03 0.01
0.02 0.03 0.06 0.12 0.15 0.06 0.05 0.04 0.07 0.15 0.24 0.24 0.23 0.19 0.16 0.20 0.30 0.59 0.84 0.69 0.64 0.71 0.51 0.18 0.11 0.32 0.59 0.60 0.65 0.59 0.28 0.24 0.27 0.34 0.25 0.17 0.15 0.13 0.13 0.13 0.09 0.06 0.07
0.04 0.07 0.08 0.15 0.28 0.21 0.12 0.14 0.20 0.24 0.25 0.27 0.21 0.15 0.13 0.19 0.24 0.27 0.49 0.61 0.57 0.51 0.53 0.43 0.28 0.29 0.54 0.69 0.69 0.58 0.51 0.41 0.43 0.36 0.37 0.31 0.20 0.12 0.10 0.12 0.14 0.10 0.15
0.05 0.08 0.10 0.13 0.24 0.27 0.23 0.27 0.32 0.35 0.30 0.24 0.16 0.14 0.14 0.28 0.25 0.20 0.30 0.36 0.47 0.55 0.66 0.73 0.71 0.60 0.47 0.65 0.83 0.71 0.51 0.46 0.45 0.46 0.42 0.36 0.39 0.29 0.20 0.23 0.25 0.17 0.15